Temp
60 60 60 60 60 58 54 65 59 72 77 59 63 58 66 64 68 69 68 65 66 64 64 61 61 63 62 65 62 57 58 57 49 50 53 55 51 51 53 42 42 44 39 42
59 59 60 59 58 56 63 63 62 72 72 54 57 64 66 68 67 66 65 64 67 67 63 57 62 61 59 62 61 59 59 53 47 43 46 50 48 54 54 52 47 41 34 44
59 59 59 59 58 57 55 62 55 60 63 65 63 62 63 62 66 67 69 68 68 63 62 63 59 58 58 58 61 59 60 56 53 47 49 53 47 51 53 51 38 39 44 50
59 58 59 59 58 57 57 57 60 63 51 55 59 64 65 62 60 66 69 64 65 63 58 60 60 60 56 58 57 57 57 51 55 57 58 56 54 54 51 46 52 46 50 52
59 58 58 58 58 56 54 53 59 62 58 60 59 57 61 62 64 62 62 61 65 66 61 63 59 60 58 56 55 56 57 51 52 50 58 56 52 55 55 54 53 55 56 54
59 58 58 58 57 58 54 61 64 58 55 59 57 58 61 64 68 68 70 66 65 62 66 69 68 69 67 63 56 54 53 51 48 44 52 50 45 53 54 54 56 56 48 57
59 59 58 57 56 58 62 63 63 56 51 58 59 62 63 64 66 65 68 68 65 66 72 70 68 65 65 64 60 61 54 51 47 41 46 34 54 57 57 56 59 59 59 60
59 59 58 58 56 57 59 62 58 57 51 58 61 63 62 65 66 64 65 67 69 71 66 56 53 52 53 58 61 59 59 52 39 37 40 50 55 58 53 51 55 62 61 64
59 58 58 58 57 56 57 58 60 56 53 54 66 61 64 60 60 60 60 63 67 65 58 52 45 42 50 48 48 54 53 53 44 36 34 35 52 54 59 58 47 63 62 62
59 58 58 58 57 56 56 56 60 56 52 61 63 58 58 64 64 58 57 57 57 60 49 45 44 48 58 46 45 40 42 40 37 40 35 46 59 58 59 45 50 61 64 63
55 58 58 58 57 57 56 56 60 57 52 58 62 63 60 62 64 54 59 54 54 48 46 47 49 49 54 52 52 45 42 38 35 37 35 37 62 55 53 59 59 61 61 61
56 57 57 58 57 57 57 53 61 60 52 54 59 59 59 59 58 62 61 57 57 56 50 51 53 49 51 50 47 53 45 50 42 46 46 59 60 60 63 62 60 60 58 61
56 56 56 57 57 57 56 56 58 55 51 55 55 55 61 61 60 62 53 57 63 61 62 54 51 49 54 45 50 52 54 59 50 52 57 58 61 63 62 61 61 61 61 62
56 56 56 56 56 56 56 54 57 56 51 43 50 63 59 63 61 60 61 60 60 57 55 50 48 45 57 53 56 56 60 56 54 54 57 59 60 61 62 64 63 62 63 63
55 56 56 56 56 56 54 55 55 56 51 40 46 52 57 58 59 59 59 58 56 51 48 46 46 53 54 53 52 52 61 59 55 55 60 63 62 63 64 62 61 62 62 61
54 56 55 55 55 55 50 42 46 50 51 46 40 46 47 50 53 55 56 56 52 50 48 46 50 52 51 41 49 61 61 63 64 59 64 63 64 64 63 63 63 64 63 63
53 55 55 54 54 51 47 43 47 51 51 41 35 37 43 46 48 47 47 49 46 48 45 43 46 48 47 38 43 56 60 61 61 61 59 56 59 59 63 64 64 64 65 65
54 53 54 53 52 51 47 48 50 53 44 41 33 33 38 45 39 38 45 41 43 42 42 42 44 44 42 36 50 53 56 58 59 61 62 62 63 63 63 65 64 61 61 62
53 53 52 51 44 43 46 50 48 46 43 33 32 34 35 47 42 41 41 42 35 41 37 39 42 38 35 44 47 50 53 53 57 61 61 60 60 60 61 60 60 59 59 60
51 47 39 37 40 50 50 42 36 35 34 35 34 43 36 43 39 37 37 37 34 31 34 41 35 34 43 50 51 53 55 58 58 54 53 55 55 56 57 57 58 57 56 55
42 34 32 37 45 41 36 33 35 32 31 32 38 43 36 45 37 36 38 34 33 31 34 35 33 34 42 51 50 54 57 58 58 58 58 58 58 57 56 55 56 55 55 53
42 39 41 39 34 32 31 31 31 32 32 34 38 43 42 41 44 36 35 33 32 32 37 34 32 38 47 51 54 56 57 58 58 58 57 56 56 54 53 52 52 52 53 53
42 36 32 32 31 29 28 26 29 31 34 36 37 35 36 37 39 35 33 32 31 38 32 32 34 45 48 50 52 54 55 56 55 54 54 53 51 52 51 50 51 51 50 51
33 32 29 32 28 31 32 32 34 38 39 38 39 34 35 35 35 32 32 33 33 30 29 29 38 44 47 48 50 50 48 49 49 49 49 47 47 47 48 49 49 48 47 48
32 32 30 30 35 36 36 36 35 38 42 40 36 35 35 33 32 32 32 30 29 29 30 36 42 46 47 46 46 46 45 45 45 46 46 45 46 46 46 47 47 47 46 46
33 32 32 35 34 32 35 36 34 42 43 42 38 32 32 32 32 30 30 29 27 31 37 42 44 44 44 43 45 46 46 45 45 46 46 46 45 45 45 45 45 45 46 45
33 32 36 37 38 35 35 39 37 45 39 33 33 31 30 32 31 29 33 31 37 41 43 45 45 44 44 45 46 46 46 45 46 45 45 45 47 46 44 43 45 45 46 45
MSLP
1014.41 1014.85 1015.70 1016.56 1017.31 1018.30 1019.05 1016.37 1015.04 1014.72 1014.88 1015.64 1014.58 1013.42 1012.51 1011.96 1011.86 1012.21 1012.14 1012.21 1011.56 1011.66 1011.94 1012.88 1013.21 1013.59 1014.27 1014.77 1015.56 1016.07 1016.23 1016.51 1017.96 1018.66 1019.07 1019.26 1019.17 1019.06 1018.96 1019.56 1019.92 1019.64 1018.90 1015.99
1013.59 1014.33 1014.81 1015.88 1016.70 1017.44 1017.04 1015.27 1014.60 1014.82 1014.45 1014.01 1013.21 1012.87 1012.30 1011.94 1011.95 1012.13 1012.32 1012.01 1011.64 1011.49 1011.80 1012.68 1013.02 1013.93 1015.34 1015.55 1016.00 1016.25 1016.41 1016.68 1017.39 1018.51 1019.23 1019.21 1019.04 1018.75 1018.87 1019.34 1019.88 1019.78 1019.41 1015.86
1012.30 1013.57 1014.27 1014.89 1015.96 1016.59 1017.88 1015.08 1013.99 1014.58 1014.36 1013.03 1012.56 1012.16 1011.67 1011.77 1011.97 1011.96 1012.05 1011.70 1011.79 1011.96 1011.96 1012.32 1012.97 1014.36 1015.79 1016.23 1016.50 1016.65 1016.59 1016.35 1016.34 1016.98 1017.10 1017.39 1018.23 1018.32 1018.64 1019.15 1019.77 1019.11 1017.45 1015.24
1011.47 1012.44 1013.54 1014.21 1015.01 1016.39 1017.48 1015.02 1011.73 1011.18 1012.04 1012.34 1012.01 1011.52 1010.95 1011.33 1011.64 1011.87 1011.70 1011.62 1011.59 1011.71 1011.83 1012.20 1012.90 1014.09 1015.91 1016.65 1016.93 1017.01 1016.96 1016.75 1016.36 1016.20 1016.27 1016.74 1017.23 1017.54 1018.05 1018.33 1018.08 1017.86 1015.79 1015.09
1010.49 1011.15 1012.21 1013.37 1014.32 1015.88 1016.64 1014.15 1011.60 1010.57 1010.45 1011.13 1011.32 1010.76 1010.09 1010.22 1010.78 1011.20 1011.10 1011.05 1011.19 1011.24 1011.21 1011.37 1012.11 1013.17 1014.57 1015.39 1016.93 1017.11 1017.10 1017.06 1016.70 1016.61 1016.31 1016.50 1016.64 1016.65 1016.64 1016.67 1016.83 1016.38 1015.82 1014.58
1009.07 1010.14 1011.10 1012.37 1013.37 1014.00 1014.02 1013.12 1011.68 1011.28 1009.99 1010.14 1010.34 1009.41 1009.32 1009.16 1009.86 1010.20 1010.20 1010.67 1010.68 1010.87 1010.68 1010.92 1011.61 1011.93 1013.05 1013.93 1015.36 1016.55 1017.09 1017.43 1017.56 1017.34 1016.93 1016.99 1016.34 1014.38 1014.53 1014.59 1014.49 1014.49 1015.16 1012.68
1007.58 1008.82 1009.87 1010.81 1012.27 1012.24 1011.84 1011.48 1011.24 1011.08 1009.94 1009.26 1008.68 1008.94 1009.04 1008.86 1009.03 1009.36 1009.78 1010.11 1010.47 1010.67 1010.71 1011.50 1012.22 1012.99 1013.51 1014.22 1014.85 1015.36 1016.35 1017.13 1017.69 1018.18 1017.83 1016.95 1014.01 1013.27 1013.23 1013.38 1013.16 1013.14 1012.66 1011.84
1006.18 1007.34 1008.51 1009.69 1010.62 1011.80 1011.74 1011.14 1011.18 1010.81 1009.90 1009.18 1008.75 1008.46 1008.63 1008.95 1009.22 1009.40 1009.72 1010.17 1010.18 1010.69 1011.43 1012.61 1013.56 1014.26 1014.58 1014.62 1015.00 1015.54 1016.04 1017.07 1018.43 1018.48 1017.77 1015.42 1013.68 1012.69 1012.73 1012.73 1011.63 1011.16 1011.23 1010.91
1004.84 1006.03 1007.07 1008.57 1009.62 1010.65 1011.97 1011.40 1011.26 1011.01 1010.38 1008.60 1008.30 1008.11 1008.17 1008.50 1009.07 1009.64 1010.27 1011.01 1010.98 1011.26 1011.88 1012.97 1013.25 1013.55 1013.53 1014.29 1015.48 1016.25 1016.76 1017.36 1018.18 1018.72 1017.91 1015.69 1012.97 1012.31 1011.95 1012.10 1011.26 1009.57 1009.95 1010.16
1003.83 1004.72 1005.89 1007.17 1008.57 1009.80 1011.22 1011.04 1011.22 1011.02 1010.25 1008.70 1008.19 1007.93 1007.87 1008.19 1008.67 1009.44 1010.64 1011.55 1011.75 1011.85 1012.51 1013.04 1013.13 1012.58 1012.39 1013.41 1014.76 1016.49 1017.33 1017.98 1018.11 1018.08 1017.11 1014.51 1012.30 1012.14 1012.16 1011.94 1009.72 1008.59 1008.82 1009.31
1004.04 1003.50 1004.69 1006.06 1007.49 1008.83 1010.28 1010.31 1010.60 1010.96 1010.28 1009.13 1008.53 1008.30 1008.17 1008.37 1008.23 1009.13 1010.31 1011.89 1012.11 1012.54 1013.07 1013.06 1012.49 1011.87 1011.26 1012.05 1012.96 1014.29 1015.41 1016.81 1017.28 1017.72 1016.60 1013.70 1011.12 1011.95 1011.29 1009.21 1008.65 1008.63 1008.81 1009.11
1003.73 1003.34 1003.69 1005.07 1006.53 1008.07 1009.68 1010.38 1010.48 1010.96 1011.28 1009.94 1009.23 1008.89 1008.94 1008.75 1008.96 1008.65 1009.60 1009.91 1010.16 1010.86 1011.56 1011.71 1011.43 1011.39 1010.95 1011.17 1011.96 1012.25 1013.12 1012.51 1013.48 1013.58 1012.11 1010.26 1009.75 1009.11 1008.90 1009.05 1009.29 1009.09 1009.27 1009.43
1003.32 1003.69 1003.56 1004.09 1005.45 1007.02 1008.19 1009.47 1010.00 1011.03 1011.10 1010.23 1009.78 1008.77 1008.73 1009.05 1009.48 1008.89 1009.20 1009.97 1009.54 1009.58 1009.38 1010.34 1010.64 1010.47 1009.99 1010.48 1010.49 1010.79 1010.48 1010.63 1010.86 1011.14 1009.75 1009.52 1009.25 1008.97 1008.88 1009.10 1009.32 1009.20 1009.39 1009.62
1002.41 1003.07 1003.45 1003.87 1004.69 1005.76 1007.37 1008.17 1009.19 1010.15 1010.58 1010.55 1008.82 1008.13 1008.75 1008.58 1009.35 1009.20 1009.28 1009.55 1009.40 1009.84 1010.15 1010.83 1010.76 1010.40 1009.14 1009.10 1008.93 1008.80 1008.37 1009.07 1009.47 1008.89 1008.52 1008.56 1008.62 1008.57 1008.68 1008.58 1008.48 1008.82 1009.00 1009.10
1002.01 1002.52 1002.91 1003.30 1004.13 1005.30 1006.32 1007.55 1007.98 1009.02 1009.44 1009.47 1009.49 1009.17 1009.19 1009.41 1009.36 1009.21 1009.85 1009.95 1010.22 1010.62 1011.20 1011.40 1011.32 1010.26 1009.79 1009.25 1008.98 1007.49 1007.38 1007.13 1007.58 1007.18 1007.56 1007.58 1007.55 1007.65 1008.12 1008.52 1008.53 1008.55 1008.61 1008.59
1001.42 1001.92 1002.17 1002.79 1003.52 1004.19 1005.98 1007.34 1008.18 1008.13 1008.57 1009.79 1010.61 1010.78 1010.36 1010.34 1010.00 1010.04 1010.28 1010.45 1010.79 1011.25 1011.47 1011.56 1010.80 1010.43 1010.15 1010.14 1008.72 1006.75 1006.77 1006.71 1006.61 1006.86 1007.05 1007.02 1007.11 1007.24 1007.45 1007.62 1007.81 1007.97 1008.07 1008.13
1000.99 1001.27 1001.62 1002.33 1003.21 1004.25 1004.83 1005.78 1006.34 1007.65 1008.08 1010.12 1011.42 1011.17 1011.20 1011.09 1011.05 1011.28 1011.23 1011.16 1011.51 1011.85 1012.13 1012.05 1011.67 1011.41 1011.08 1010.91 1008.68 1007.05 1006.52 1006.86 1006.97 1007.10 1007.34 1007.15 1007.26 1007.16 1007.30 1007.42 1007.36 1007.40 1007.51 1007.49
1001.17 1001.27 1001.01 1002.17 1003.51 1004.68 1004.92 1005.37 1006.05 1006.92 1008.75 1009.70 1010.97 1011.33 1011.69 1011.24 1011.43 1011.97 1012.10 1012.32 1012.41 1012.64 1012.50 1012.52 1012.29 1012.35 1012.04 1011.12 1006.10 1007.37 1007.58 1007.49 1006.85 1006.88 1006.97 1007.07 1007.39 1007.36 1007.23 1007.12 1007.07 1007.05 1007.06 1007.01
1000.40 1000.63 1001.53 1002.74 1003.49 1003.96 1004.68 1005.68 1006.83 1007.66 1008.73 1009.45 1009.99 1010.03 1010.33 1010.36 1010.90 1011.71 1012.38 1012.42 1013.14 1013.32 1013.03 1012.94 1012.92 1012.36 1011.18 1007.50 1007.81 1007.64 1007.73 1007.37 1006.18 1006.39 1006.63 1006.93 1006.89 1006.74 1006.66 1006.72 1006.75 1006.68 1006.63 1006.63
1000.99 1002.07 1003.07 1003.95 1004.20 1003.58 1004.90 1006.79 1007.48 1008.03 1008.71 1009.13 1008.65 1008.12 1009.19 1009.53 1010.56 1011.43 1012.30 1012.42 1012.80 1013.11 1013.01 1012.80 1012.37 1011.23 1009.05 1007.70 1007.08 1006.58 1006.12 1005.83 1006.17 1006.38 1006.16 1006.36 1006.33 1006.50 1006.38 1006.31 1006.25 1006.25 1006.34 1006.44
1001.47 1003.24 1004.55 1004.87 1004.69 1004.88 1005.35 1006.47 1007.14 1008.26 1008.65 1008.54 1007.89 1007.47 1008.00 1008.94 1009.79 1010.89 1011.50 1011.80 1012.21 1012.24 1012.09 1012.06 1011.50 1009.56 1006.92 1005.69 1005.94 1005.50 1005.39 1005.44 1005.46 1005.48 1005.63 1005.95 1005.98 1005.98 1006.04 1006.08 1006.20 1006.23 1006.27 1006.44
1001.87 1002.91 1004.41 1004.87 1005.08 1005.30 1005.53 1005.62 1006.82 1007.03 1006.73 1006.87 1006.56 1006.72 1007.43 1008.69 1009.13 1010.21 1011.28 1011.50 1011.71 1011.22 1011.16 1011.21 1010.01 1005.84 1004.61 1004.52 1004.18 1004.01 1004.19 1004.42 1004.55 1004.70 1005.03 1005.34 1005.52 1005.69 1005.95 1006.05 1006.15 1006.15 1006.19 1006.29
1002.31 1003.51 1004.40 1004.51 1004.73 1004.11 1004.37 1005.16 1005.76 1005.56 1005.32 1005.44 1005.83 1007.05 1007.73 1008.63 1008.80 1009.71 1010.57 1010.83 1010.80 1010.51 1010.38 1009.50 1006.71 1004.54 1004.19 1003.72 1003.75 1003.79 1003.76 1003.94 1004.22 1004.58 1004.92 1005.19 1005.54 1005.85 1006.26 1006.57 1006.44 1006.40 1006.44 1006.45
1002.77 1003.18 1003.87 1003.92 1003.82 1003.84 1003.83 1004.04 1004.19 1003.85 1004.34 1004.70 1005.51 1006.77 1007.55 1008.10 1008.25 1009.05 1009.70 1010.15 1010.03 1009.78 1009.30 1007.21 1004.81 1004.05 1003.87 1003.86 1003.94 1004.15 1004.29 1004.52 1004.76 1005.02 1005.40 1005.74 1006.01 1006.32 1006.51 1006.60 1006.62 1006.64 1006.72 1006.60
1003.04 1003.16 1003.34 1003.48 1003.22 1003.21 1003.33 1004.05 1004.34 1004.12 1004.13 1004.90 1006.14 1006.66 1007.16 1007.64 1007.96 1008.31 1008.88 1009.31 1008.65 1007.90 1006.33 1004.92 1004.07 1003.75 1003.85 1004.02 1004.23 1004.47 1004.72 1005.04 1005.34 1005.49 1005.80 1006.12 1006.47 1006.56 1006.64 1006.59 1006.65 1006.64 1006.52 1006.49
1003.34 1003.36 1003.33 1003.16 1002.98 1003.11 1003.67 1004.02 1004.21 1004.29 1004.60 1004.86 1005.60 1006.42 1007.11 1007.19 1007.22 1007.48 1007.42 1007.17 1006.28 1005.26 1004.74 1004.31 1004.06 1004.22 1004.21 1004.34 1004.67 1004.80 1005.11 1005.44 1005.69 1005.77 1005.96 1006.32 1006.53 1006.46 1006.70 1006.71 1006.41 1006.26 1006.23 1006.19
1003.39 1003.47 1003.14 1002.77 1002.82 1003.18 1003.58 1003.98 1004.56 1004.54 1004.75 1005.33 1005.99 1006.53 1006.78 1006.94 1006.89 1006.67 1006.04 1005.45 1004.61 1003.73 1003.75 1003.97 1004.08 1004.50 1004.70 1004.73 1004.81 1005.11 1005.68 1006.01 1006.08 1005.97 1006.02 1006.19 1006.26 1006.16 1006.55 1006.66 1006.31 1006.00 1005.77 1005.68
Wind_Speed
22 22 20 18 16 10 4 5 5 8 10 7 7 12 12 2 8 4 4 2 4 7 8 9 7 7 5 8 8 7 1 0 4 2 4 3 2 3 1 5 1 1 4 9
24 23 23 21 18 18 4 4 5 4 9 10 11 11 19 3 6 8 5 5 4 3 6 5 6 6 4 5 5 5 5 4 3 1 0 1 4 5 4 4 3 5 5 8
27 25 24 23 21 22 3 6 6 5 6 10 16 16 16 9 6 7 10 5 5 3 5 2 5 4 2 2 1 3 3 3 4 1 3 6 4 5 7 6 4 5 10 9
28 27 25 25 23 17 6 6 6 8 11 13 15 14 11 15 8 6 10 5 8 9 6 7 4 6 4 2 3 1 2 3 6 7 2 5 5 7 11 11 12 7 4 8
30 29 29 27 24 21 6 5 3 4 6 17 19 15 16 17 19 12 8 10 14 10 7 7 8 10 7 6 5 6 3 2 3 4 7 6 9 9 11 16 16 17 16 23
33 31 30 29 27 20 6 6 5 3 4 15 18 17 18 21 15 17 10 16 9 14 13 0 5 8 7 11 11 9 8 4 4 2 6 3 9 12 19 8 8 19 14 21
35 33 32 32 31 27 4 5 2 2 4 8 17 19 21 18 21 15 14 7 15 0 12 9 9 9 6 10 8 8 7 5 4 3 5 6 8 4 3 6 10 14 12 11
36 35 34 33 34 33 9 2 3 3 4 9 12 16 18 15 11 12 7 7 2 11 6 5 5 2 2 6 7 6 5 5 3 5 6 8 9 5 8 8 9 18 20 18
35 35 35 34 34 34 14 4 1 2 2 6 11 6 12 14 12 7 5 4 1 5 4 4 7 8 8 7 3 6 6 4 5 3 5 9 3 2 3 4 8 9 17 16
34 36 35 35 34 32 14 6 5 2 3 3 5 6 7 4 10 7 7 5 2 1 3 4 5 5 8 10 10 7 4 1 7 6 6 7 9 8 4 5 9 2 6 7
15 34 34 34 34 31 19 10 6 4 3 6 2 2 5 7 8 7 11 5 3 2 5 6 5 5 7 5 9 10 10 9 5 3 4 12 8 5 10 8 2 3 4 4
9 15 32 32 33 31 26 9 10 3 3 3 3 3 3 3 4 4 12 5 11 7 5 5 4 4 3 7 5 5 8 11 11 14 11 5 12 7 14 3 2 3 2 3
12 12 15 32 32 32 28 12 8 6 4 6 4 5 3 2 2 4 7 2 5 5 3 5 5 5 6 7 7 6 6 8 5 5 9 9 9 9 4 3 7 5 4 6
18 16 13 13 28 33 31 14 7 9 3 5 5 4 3 4 5 2 3 1 2 4 3 1 3 4 3 6 5 11 8 10 8 9 7 6 7 10 7 11 10 8 8 9
9 17 17 13 16 27 22 12 10 12 7 6 2 3 5 4 2 6 4 0 2 2 3 3 4 4 1 0 2 8 7 9 8 8 7 10 8 2 8 9 9 9 10 8
4 18 19 14 8 23 9 2 1 4 5 3 3 4 3 3 4 3 7 4 3 1 3 4 3 3 4 3 11 15 7 6 5 3 5 7 8 6 5 7 7 8 8 8
1 19 21 16 13 11 6 6 6 9 5 4 2 3 1 1 3 2 3 4 2 2 2 3 2 2 4 2 13 7 7 4 7 5 7 7 5 7 5 8 9 9 12 13
11 2 22 24 23 12 4 2 20 15 6 3 5 3 2 5 3 2 0 2 1 1 1 1 2 2 3 6 18 5 7 10 17 16 15 14 11 11 14 15 16 17 16 13
11 8 22 10 3 3 5 21 14 4 4 7 4 7 4 6 3 3 2 2 3 1 2 1 3 3 9 15 8 14 12 13 22 21 16 14 17 16 16 13 13 15 14 14
15 7 4 4 3 26 21 5 3 4 2 2 3 3 5 6 3 3 4 2 4 4 5 4 4 5 18 18 19 16 16 19 14 15 17 13 13 14 14 12 8 7 5 5
4 4 2 3 3 1 4 5 5 4 4 5 4 4 7 2 4 3 2 4 4 5 5 7 4 7 9 22 22 21 19 17 16 16 15 14 14 10 9 8 7 6 6 5
7 9 4 2 3 3 5 5 4 4 7 6 5 5 5 4 4 4 3 3 2 4 7 4 5 9 12 6 10 14 17 17 17 14 14 11 9 4 2 3 4 4 6 6
4 5 4 3 2 4 4 7 4 4 6 6 5 5 4 3 2 4 3 5 4 7 3 5 10 1 4 4 3 2 3 2 5 5 5 6 5 5 3 4 5 5 6 6
2 3 5 3 3 3 3 3 2 3 6 9 7 4 4 2 3 4 5 3 4 5 5 9 3 7 6 7 4 2 1 7 6 5 5 3 2 2 4 4 5 5 6 6
2 2 3 3 2 2 5 5 2 1 7 7 5 4 3 2 4 3 4 6 5 7 7 4 2 4 6 5 4 5 6 5 4 3 2 3 4 4 5 5 4 5 6 7
2 2 2 0 2 3 4 3 2 5 7 4 4 4 3 2 4 4 5 7 6 5 4 1 3 4 4 4 4 4 5 4 3 3 3 2 3 3 4 6 6 6 6 7
2 1 1 2 1 4 2 6 4 6 4 3 3 5 2 3 2 3 4 5 3 4 4 3 4 5 5 5 6 6 5 3 3 2 1 2 3 4 5 7 7 7 7 7
Wind_Direction
189 181 180 181 181 164 189 243 201 169 156 188 203 223 227 355 136 144 247 272 243 228 147 187 198 200 71 109 149 164 173 305 158 101 73 44 325 314 338 112 186 292 149 274
187 186 177 178 173 172 207 226 128 167 197 202 218 226 234 185 175 187 202 226 236 289 161 180 219 92 310 94 187 163 187 224 161 158 108 26 237 187 238 87 81 224 142 257
183 186 181 176 180 193 228 270 157 149 217 252 205 201 221 198 227 214 222 236 171 154 217 137 183 110 112 136 251 29 51 280 247 154 122 123 186 202 194 182 149 228 228 265
185 183 184 178 181 175 171 258 209 173 177 208 224 234 199 205 193 230 210 218 207 190 182 167 194 109 126 183 138 223 210 234 245 264 256 164 229 203 196 210 218 210 221 251
188 182 182 182 175 149 203 276 257 162 183 197 201 204 216 207 202 173 200 222 193 210 225 177 186 139 173 180 151 185 196 250 29 296 258 238 266 240 235 218 225 247 262 280
187 184 181 181 172 163 176 213 270 295 230 185 192 205 207 207 198 201 206 203 203 209 214 221 53 170 172 148 151 184 152 185 157 247 58 35 293 235 215 216 218 215 226 238
185 185 183 178 178 190 192 210 263 211 251 203 201 202 208 207 210 215 194 231 204 295 98 74 59 50 35 152 162 169 170 182 130 209 153 231 235 206 171 224 230 215 248 247
188 185 184 183 179 193 215 285 157 237 251 196 227 202 206 209 229 219 172 178 287 144 123 101 127 140 181 232 195 193 186 144 144 166 207 291 309 213 174 174 265 211 226 245
188 188 185 185 183 190 208 250 241 268 331 227 211 202 202 199 209 186 99 36 8 182 129 141 187 186 182 175 121 23 354 52 148 155 198 222 233 104 86 126 275 242 202 233
192 189 186 184 185 188 189 217 205 287 210 264 202 194 188 190 186 166 118 144 173 41 178 162 196 216 174 163 174 169 158 199 196 210 234 271 239 159 128 141 240 92 171 191
266 192 188 184 184 183 186 209 187 211 262 265 245 259 182 205 186 161 142 113 222 101 180 169 203 212 206 168 151 168 163 158 181 190 230 262 184 77 178 207 346 175 202 201
239 216 187 186 183 183 182 214 202 192 250 336 348 311 315 36 20 146 163 187 163 168 162 201 196 192 190 161 215 189 181 185 180 185 205 221 187 192 226 357 340 340 348 296
196 219 216 183 183 182 182 196 173 172 214 276 241 221 226 162 176 321 131 265 186 190 183 165 211 209 146 172 226 176 245 191 220 142 224 211 205 236 230 221 246 276 262 253
197 209 203 192 192 183 181 188 174 182 158 208 243 145 165 109 158 126 20 347 47 68 69 115 181 181 206 204 200 208 201 151 196 246 263 313 225 214 228 253 248 257 254 234
211 211 189 187 201 202 186 192 182 185 181 188 148 349 58 28 252 170 139 295 115 114 117 172 213 221 46 62 52 238 210 212 199 231 184 212 234 181 202 242 258 260 256 261
326 204 169 160 185 196 151 125 250 190 133 95 150 350 8 19 344 215 193 186 93 99 161 211 235 27 115 188 244 231 198 241 250 265 263 270 267 272 282 290 274 272 269 262
251 199 159 155 161 156 170 164 151 153 87 98 349 287 176 33 75 29 50 34 99 138 176 240 177 92 95 149 247 90 208 278 288 336 356 310 279 262 259 259 280 292 291 285
175 230 148 144 145 112 100 60 145 142 105 92 155 213 211 188 137 110 62 91 60 40 195 171 148 69 98 248 248 235 274 290 283 283 267 256 268 273 270 278 287 282 278 282
141 122 150 134 52 148 131 129 100 71 110 157 158 155 169 171 123 113 125 129 127 39 215 228 118 170 217 238 233 239 230 229 255 259 268 275 270 272 272 270 276 274 276 274
107 68 43 106 321 116 108 54 75 35 54 98 199 180 145 155 130 123 124 154 167 173 204 161 200 244 246 243 241 241 235 236 251 258 260 257 253 252 255 253 260 271 292 310
75 78 90 252 334 75 57 131 162 148 172 179 208 188 130 188 134 132 201 165 162 181 177 186 194 249 227 227 236 244 249 247 245 244 252 256 266 275 281 281 278 284 288 285
129 115 112 79 49 73 134 128 127 201 190 170 168 145 114 151 130 119 167 160 162 193 136 161 237 246 243 222 222 225 228 234 239 231 240 249 259 283 329 353 335 318 317 312
75 71 121 175 199 105 142 157 172 183 175 162 164 122 130 119 136 104 148 177 188 123 161 210 233 124 85 100 99 202 191 154 86 74 64 58 41 19 351 316 305 307 294 285
72 151 129 211 148 184 173 139 153 110 144 142 129 108 129 146 116 124 157 155 128 176 197 234 236 206 216 168 184 186 104 75 64 61 73 78 78 327 306 281 282 291 286 288
85 67 119 170 130 138 115 107 67 26 140 123 116 76 100 138 125 163 116 166 187 210 225 226 180 111 141 144 114 116 115 118 123 111 54 353 331 317 302 304 315 298 283 271
94 96 109 14 111 101 99 86 79 149 141 93 66 114 146 144 127 156 190 161 199 221 205 195 127 122 109 107 122 117 122 143 154 160 174 232 268 303 285 285 282 278 282 291
111 230 295 252 340 136 116 137 172 165 148 140 152 141 131 98 147 209 195 204 222 149 117 88 92 132 138 137 134 139 153 174 168 133 84 304 305 305 300 302 297 304 297 289